Weather History for Montague, CA

Change the Weather History Date:

Wednesday, February 27, 2013

  Actual Average Record
Temperature  
Mean Temperature 38 °F 42 °F  
Max Temperature 55 °F 54 °F 71 °F (1992)
Min Temperature 20 °F 29 °F 10 °F (1962)
Degree Days  
Heating Degree Days 27 23  
Month to date heating degree days 758 701  
Since 1 July heating degree days 3722 3853  
Cooling Degree Days 0 0  
Month to date cooling degree days 0 0  
Year to date cooling degree days 0 0  
Moisture  
Dew Point 25 °F    
Average Humidity 59    
Maximum Humidity 81    
Minimum Humidity 28    
Precipitation  
Precipitation T in 0.08 in 0.66 in (2006)
Month to date precipitation 0.33 1.94  
Year to date precipitation 1.04 4.14  
Sea Level Pressure  
Sea Level Pressure 30.38 in    
Wind  
Wind Speed 2 mph (SSE)    
Max Wind Speed 15 mph    
Max Gust Speed 25 mph    
Visibility 10 miles    
Events Rain    
T = Trace of Precipitation, MM = Missing Value Source: NWS Daily Summary

Daily Weather History Graph

Daily Weather History Graph

Search for Another Location

Airport:

Trip Planner

Search our weather history database for the weather conditions in past years. The results will help you decide how hot, cold, wet, or windy it might be!

Date:

Astronomy

Feb. 27, 2013 Rise Set
Actual Time 6:47 AM PST 5:58 PM PST
Civil Twilight 6:19 AM PST 6:26 PM PST
Nautical Twilight 5:47 AM PST 6:58 PM PST
Astronomical Twilight 5:14 AM PST 7:30 PM PST
Moon 8:28 PM PST (2/27) 7:23 AM PST (2/27)
Length of Visible Light 12h 06m
Length of Day
11h 11m
Waning Gibbous, 96% of the Moon is Illuminated
Feb 27
Waning Gibbous
Mar 4
Last Quarter
Mar 11
New
Mar 19
First Quarter
Mar 27
Full

Hourly Weather History & Observations

Time (PST) Temp. Windchill Dew Point Humidity Pressure Visibility Wind Dir Wind Speed Gust Speed Precip Events Conditions
12:53 AM 24.1 °F 19.7 °F 17.1 °F 75% 30.36 in 10.0 mi North 3.5 mph - N/A   Clear
1:53 AM 24.1 °F - 16.0 °F 71% 30.37 in 10.0 mi Calm Calm - N/A   Clear
2:53 AM 21.9 °F - 16.0 °F 78% 30.37 in 10.0 mi Calm Calm - N/A   Clear
3:53 AM 23.0 °F - 16.0 °F 74% 30.37 in 10.0 mi Calm Calm - N/A   Clear
4:53 AM 24.1 °F 18.2 °F 18.0 °F 77% 30.37 in 10.0 mi East 4.6 mph - N/A   Clear
5:53 AM 23.0 °F - 17.1 °F 78% 30.40 in 10.0 mi Calm Calm - N/A   Clear
7:53 AM 27.0 °F - 21.0 °F 78% 30.43 in 10.0 mi Calm Calm - N/A   Overcast
8:53 AM 32.0 °F - 23.0 °F 69% 30.43 in 10.0 mi Calm Calm - N/A   Overcast
9:53 AM 36.0 °F - 24.1 °F 62% 30.45 in 10.0 mi Calm Calm - N/A   Clear
10:53 AM 42.1 °F - 24.1 °F 49% 30.43 in 10.0 mi Calm Calm - N/A   Scattered Clouds
11:53 AM 45.0 °F 41.8 °F 24.1 °F 44% 30.40 in 10.0 mi SSW 5.8 mph - N/A   Partly Cloudy
12:53 PM 48.0 °F - 24.1 °F 39% 30.38 in 10.0 mi Calm Calm - N/A   Overcast
1:53 PM 52.0 °F - 24.1 °F 34% 30.35 in 10.0 mi Variable 3.5 mph - N/A   Mostly Cloudy
2:53 PM 54.0 °F - 21.9 °F 29% 30.33 in 10.0 mi SSW 3.5 mph - N/A   Overcast
3:53 PM 54.0 °F - 23.0 °F 30% 30.33 in 10.0 mi Calm Calm - N/A   Overcast
4:53 PM 54.0 °F - 24.1 °F 31% 30.33 in 10.0 mi Calm Calm - N/A   Overcast
5:53 PM 51.1 °F - 28.9 °F 43% 30.34 in 10.0 mi Calm Calm - N/A   Overcast
6:53 PM 50.0 °F - 28.0 °F 43% 30.36 in 10.0 mi South 3.5 mph - N/A   Overcast
7:53 PM 50.0 °F - 32.0 °F 50% 30.38 in 10.0 mi West 12.7 mph 19.6 mph N/A   Overcast
8:53 PM 48.0 °F - 35.1 °F 61% 30.38 in 10.0 mi Calm Calm - 0.00 in Rain Light Rain
9:53 PM 45.0 °F 39.3 °F 37.9 °F 76% 30.39 in 10.0 mi ESE 11.5 mph - 0.00 in   Overcast
10:53 PM 45.0 °F 41.8 °F 39.0 °F 80% 30.39 in 10.0 mi ESE 5.8 mph - 0.00 in Rain Light Rain
11:53 PM 44.1 °F - 37.0 °F 76% 30.38 in 10.0 mi Calm Calm - 0.00 in   Overcast